Time,TemperatureF,DewpointF,PressureIn,WindDirection,WindDirectionDegrees,WindSpeedMPH,WindSpeedGustMPH,Humidity,HourlyPrecipIn,Conditions,Clouds,dailyrainin,SoftwareType,DateUTC
2014-11-25 00:02:00,57.0,48.0,30.39,ENE,71,0.0,-999.0,73,-99.99,,,-99.99,,2014-11-25 08:02:00,
2014-11-25 00:22:00,56.0,49.0,30.39,ENE,71,0.0,-999.0,76,-99.99,,,-99.99,,2014-11-25 08:22:00,
2014-11-25 00:32:00,56.0,49.0,30.39,ENE,71,0.0,-999.0,76,-99.99,,,-99.99,,2014-11-25 08:32:00,
2014-11-25 00:52:00,56.0,49.0,30.40,ENE,65,1.0,-999.0,77,-99.99,,,-99.99,,2014-11-25 08:52:00,
2014-11-25 01:02:00,56.0,49.0,30.40,ENE,65,1.0,-999.0,77,-99.99,,,-99.99,,2014-11-25 09:02:00,
2014-11-25 01:22:00,55.0,49.0,30.39,ENE,66,0.0,-999.0,80,-99.99,,,-99.99,,2014-11-25 09:22:00,
2014-11-25 01:34:00,55.0,49.0,30.39,ENE,66,0.0,-999.0,80,-99.99,,,-99.99,,2014-11-25 09:34:00,
2014-11-25 01:44:00,55.0,49.0,30.39,ENE,66,0.0,-999.0,80,-99.99,,,-99.99,,2014-11-25 09:44:00,
2014-11-25 01:54:00,55.0,48.0,30.39,North,360,2.0,-999.0,77,-99.99,,,-99.99,,2014-11-25 09:54:00,
2014-11-25 02:03:00,55.0,48.0,30.39,North,360,2.0,-999.0,77,-99.99,,,-99.99,,2014-11-25 10:03:00,
2014-11-25 02:13:00,55.0,48.0,30.39,North,360,2.0,-999.0,77,-99.99,,,-99.99,,2014-11-25 10:13:00,
2014-11-25 02:23:00,54.0,48.0,30.40,North,360,0.0,-999.0,79,-99.99,,,-99.99,,2014-11-25 10:23:00,
2014-11-25 02:33:00,54.0,48.0,30.40,North,360,0.0,-999.0,79,-99.99,,,-99.99,,2014-11-25 10:33:00,
2014-11-25 02:52:00,54.0,48.0,30.39,North,360,0.0,-999.0,81,-99.99,,,-99.99,,2014-11-25 10:52:00,
2014-11-25 03:03:00,54.0,48.0,30.39,North,360,0.0,-999.0,81,-99.99,,,-99.99,,2014-11-25 11:03:00,
2014-11-25 03:22:00,54.0,48.0,30.38,NNW,333,0.0,-999.0,80,-99.99,,,-99.99,,2014-11-25 11:22:00,
2014-11-25 03:32:00,54.0,48.0,30.38,NNW,333,0.0,-999.0,80,-99.99,,,-99.99,,2014-11-25 11:32:00,
2014-11-25 03:42:00,54.0,48.0,30.38,NNW,333,0.0,-999.0,80,-99.99,,,-99.99,,2014-11-25 11:42:00,
2014-11-25 03:52:00,53.0,47.0,30.38,NNW,348,5.0,-999.0,79,-99.99,,,-99.99,,2014-11-25 11:52:00,
2014-11-25 04:03:00,53.0,47.0,30.38,NNW,348,5.0,-999.0,79,-99.99,,,-99.99,,2014-11-25 12:03:00,
2014-11-25 04:22:00,54.0,47.0,30.38,NNE,26,5.0,-999.0,77,-99.99,,,-99.99,,2014-11-25 12:22:00,
2014-11-25 04:33:00,54.0,47.0,30.38,NNE,26,5.0,-999.0,77,-99.99,,,-99.99,,2014-11-25 12:33:00,
2014-11-25 04:42:00,54.0,47.0,30.38,NNE,26,5.0,-999.0,77,-99.99,,,-99.99,,2014-11-25 12:42:00,
2014-11-25 04:52:00,54.0,47.0,30.38,NNE,26,5.0,-999.0,77,-99.99,,,-99.99,,2014-11-25 12:52:00,
2014-11-25 05:22:00,53.0,45.0,30.38,NNE,17,6.0,-999.0,75,-99.99,,,-99.99,,2014-11-25 13:22:00,
2014-11-25 05:32:00,53.0,45.0,30.38,NNE,17,6.0,-999.0,75,-99.99,,,-99.99,,2014-11-25 13:32:00,
2014-11-25 05:42:00,53.0,45.0,30.38,NNE,17,6.0,-999.0,75,-99.99,,,-99.99,,2014-11-25 13:42:00,
2014-11-25 05:52:00,53.0,46.0,30.39,NNW,342,8.0,-999.0,78,-99.99,,,-99.99,,2014-11-25 13:52:00,
2014-11-25 06:02:00,53.0,46.0,30.39,NNW,342,8.0,-999.0,78,-99.99,,,-99.99,,2014-11-25 14:02:00,
2014-11-25 06:22:00,52.0,46.0,30.39,North,9,8.0,-999.0,80,-99.99,,,-99.99,,2014-11-25 14:22:00,
2014-11-25 06:32:00,52.0,46.0,30.39,North,9,8.0,-999.0,80,-99.99,,,-99.99,,2014-11-25 14:32:00,
2014-11-25 06:42:00,52.0,46.0,30.39,North,9,8.0,-999.0,80,-99.99,,,-99.99,,2014-11-25 14:42:00,
2014-11-25 06:52:00,52.0,46.0,30.39,North,9,8.0,-999.0,80,-99.99,,,-99.99,,2014-11-25 14:52:00,
2014-11-25 07:02:00,52.0,46.0,30.39,North,9,8.0,-999.0,80,-99.99,,,-99.99,,2014-11-25 15:02:00,
2014-11-25 07:23:00,52.0,47.0,30.40,North,355,8.0,-999.0,82,-99.99,,,-99.99,,2014-11-25 15:23:00,
2014-11-25 07:34:00,52.0,47.0,30.40,North,355,8.0,-999.0,82,-99.99,,,-99.99,,2014-11-25 15:34:00,
2014-11-25 07:44:00,52.0,47.0,30.40,North,355,8.0,-999.0,82,-99.99,,,-99.99,,2014-11-25 15:44:00,
2014-11-25 07:54:00,52.0,47.0,30.41,North,355,10.0,-999.0,83,-99.99,,,-99.99,,2014-11-25 15:54:00,
2014-11-25 08:03:00,52.0,47.0,30.41,North,355,10.0,-999.0,83,-99.99,,,-99.99,,2014-11-25 16:03:00,
2014-11-25 08:24:00,53.0,48.0,30.41,North,11,9.0,-999.0,82,-99.99,,,-99.99,,2014-11-25 16:24:00,
2014-11-25 08:33:00,53.0,48.0,30.41,North,11,9.0,-999.0,82,-99.99,,,-99.99,,2014-11-25 16:33:00,
2014-11-25 08:43:00,53.0,48.0,30.41,North,11,9.0,-999.0,82,-99.99,,,-99.99,,2014-11-25 16:43:00,
2014-11-25 08:53:00,54.0,48.0,30.42,NNE,18,6.0,-999.0,79,-99.99,,,-99.99,,2014-11-25 16:53:00,
2014-11-25 09:03:00,54.0,48.0,30.42,NNE,18,6.0,-999.0,79,-99.99,,,-99.99,,2014-11-25 17:03:00,
2014-11-25 09:22:00,55.0,47.0,30.42,NNE,28,9.0,-999.0,73,-99.99,,,-99.99,,2014-11-25 17:22:00,
2014-11-25 09:33:00,55.0,47.0,30.42,NNE,28,9.0,-999.0,73,-99.99,,,-99.99,,2014-11-25 17:33:00,
2014-11-25 09:53:00,57.0,47.0,30.42,NNE,14,7.0,-999.0,70,-99.99,,,-99.99,,2014-11-25 17:53:00,
2014-11-25 10:02:00,57.0,47.0,30.42,NNE,14,7.0,-999.0,70,-99.99,,,-99.99,,2014-11-25 18:02:00,
2014-11-25 10:13:00,57.0,47.0,30.42,NNE,14,7.0,-999.0,70,-99.99,,,-99.99,,2014-11-25 18:13:00,
2014-11-25 10:22:00,57.0,47.0,30.43,North,9,8.0,-999.0,69,-99.99,,,-99.99,,2014-11-25 18:22:00,
2014-11-25 10:32:00,57.0,47.0,30.43,North,9,8.0,-999.0,69,-99.99,,,-99.99,,2014-11-25 18:32:00,
2014-11-25 10:45:00,57.0,47.0,30.43,North,9,8.0,-999.0,69,-99.99,,,-99.99,,2014-11-25 18:45:00,
2014-11-25 10:54:00,58.0,47.0,30.42,ENE,67,9.0,-999.0,68,-99.99,,,-99.99,,2014-11-25 18:54:00,
2014-11-25 11:03:00,58.0,47.0,30.42,ENE,67,9.0,-999.0,68,-99.99,,,-99.99,,2014-11-25 19:03:00,
2014-11-25 11:22:00,59.0,48.0,30.41,NNW,334,7.0,-999.0,67,-99.99,,,-99.99,,2014-11-25 19:22:00,
2014-11-25 11:32:00,59.0,48.0,30.41,NNW,334,7.0,-999.0,67,-99.99,,,-99.99,,2014-11-25 19:32:00,
2014-11-25 11:42:00,59.0,48.0,30.41,NNW,334,7.0,-999.0,67,-99.99,,,-99.99,,2014-11-25 19:42:00,
2014-11-25 11:52:00,61.0,49.0,30.40,NE,50,7.0,-999.0,65,-99.99,,,-99.99,,2014-11-25 19:52:00,
2014-11-25 12:02:00,61.0,49.0,30.40,NE,50,7.0,-999.0,65,-99.99,,,-99.99,,2014-11-25 20:02:00,
2014-11-25 12:22:00,62.0,49.0,30.38,NE,45,4.0,-999.0,63,-99.99,,,-99.99,,2014-11-25 20:22:00,
2014-11-25 12:32:00,62.0,49.0,30.38,NE,45,4.0,-999.0,63,-99.99,,,-99.99,,2014-11-25 20:32:00,
2014-11-25 12:42:00,62.0,49.0,30.38,NE,45,4.0,-999.0,63,-99.99,,,-99.99,,2014-11-25 20:42:00,
2014-11-25 12:53:00,62.0,49.0,30.37,WNW,298,4.0,-999.0,63,-99.99,,,-99.99,,2014-11-25 20:53:00,
2014-11-25 13:03:00,62.0,49.0,30.37,WNW,298,4.0,-999.0,63,-99.99,,,-99.99,,2014-11-25 21:03:00,
2014-11-25 13:22:00,63.0,50.0,30.36,NW,317,5.0,-999.0,62,-99.99,,,-99.99,,2014-11-25 21:22:00,
2014-11-25 13:34:00,63.0,50.0,30.36,NW,317,5.0,-999.0,62,-99.99,,,-99.99,,2014-11-25 21:34:00,
2014-11-25 13:44:00,63.0,50.0,30.36,NW,317,5.0,-999.0,62,-99.99,,,-99.99,,2014-11-25 21:44:00,
2014-11-25 13:54:00,63.0,50.0,30.36,North,350,6.0,-999.0,63,-99.99,,,-99.99,,2014-11-25 21:54:00,
2014-11-25 14:03:00,63.0,50.0,30.36,North,350,6.0,-999.0,63,-99.99,,,-99.99,,2014-11-25 22:03:00,
2014-11-25 14:23:00,63.0,51.0,30.35,NE,46,5.0,-999.0,65,-99.99,,,-99.99,,2014-11-25 22:23:00,
2014-11-25 14:33:00,63.0,51.0,30.35,NE,46,5.0,-999.0,65,-99.99,,,-99.99,,2014-11-25 22:33:00,
2014-11-25 14:43:00,63.0,51.0,30.35,NE,46,5.0,-999.0,65,-99.99,,,-99.99,,2014-11-25 22:43:00,
2014-11-25 14:53:00,63.0,50.0,30.35,NE,37,6.0,-999.0,63,-99.99,,,-99.99,,2014-11-25 22:53:00,
2014-11-25 15:03:00,63.0,50.0,30.35,NE,37,6.0,-999.0,63,-99.99,,,-99.99,,2014-11-25 23:03:00,
2014-11-25 15:22:00,63.0,51.0,30.34,North,9,4.0,-999.0,65,-99.99,,,-99.99,,2014-11-25 23:22:00,
2014-11-25 15:33:00,63.0,51.0,30.34,North,9,4.0,-999.0,65,-99.99,,,-99.99,,2014-11-25 23:33:00,
2014-11-25 15:42:00,63.0,51.0,30.34,North,9,4.0,-999.0,65,-99.99,,,-99.99,,2014-11-25 23:42:00,
2014-11-25 15:52:00,63.0,51.0,30.34,NW,312,3.0,-999.0,66,-99.99,,,-99.99,,2014-11-25 23:52:00,
2014-11-25 16:02:00,63.0,51.0,30.34,NW,312,3.0,-999.0,66,-99.99,,,-99.99,,2014-11-26 00:02:00,
2014-11-25 16:12:00,63.0,51.0,30.34,NW,312,3.0,-999.0,66,-99.99,,,-99.99,,2014-11-26 00:12:00,
2014-11-25 16:22:00,61.0,51.0,30.33,North,5,5.0,-999.0,69,-99.99,,,-99.99,,2014-11-26 00:22:00,
2014-11-25 16:32:00,61.0,51.0,30.33,North,5,5.0,-999.0,69,-99.99,,,-99.99,,2014-11-26 00:32:00,
2014-11-25 16:42:00,61.0,51.0,30.33,North,5,5.0,-999.0,69,-99.99,,,-99.99,,2014-11-26 00:42:00,
2014-11-25 16:52:00,61.0,51.0,30.32,NNW,333,6.0,-999.0,70,-99.99,,,-99.99,,2014-11-26 00:52:00,
2014-11-25 17:02:00,61.0,51.0,30.32,NNW,333,6.0,-999.0,70,-99.99,,,-99.99,,2014-11-26 01:02:00,
2014-11-25 17:22:00,60.0,51.0,30.32,North,360,5.0,-999.0,71,-99.99,,,-99.99,,2014-11-26 01:22:00,
2014-11-25 17:32:00,60.0,51.0,30.32,North,360,5.0,-999.0,71,-99.99,,,-99.99,,2014-11-26 01:32:00,
2014-11-25 17:42:00,60.0,51.0,30.32,North,360,5.0,-999.0,71,-99.99,,,-99.99,,2014-11-26 01:42:00,
2014-11-25 17:52:00,60.0,51.0,30.32,NNW,346,5.0,-999.0,72,-99.99,,,-99.99,,2014-11-26 01:52:00,
2014-11-25 18:02:00,60.0,51.0,30.32,NNW,346,5.0,-999.0,72,-99.99,,,-99.99,,2014-11-26 02:02:00,
2014-11-25 18:22:00,59.0,50.0,30.33,North,355,2.0,-999.0,72,-99.99,,,-99.99,,2014-11-26 02:22:00,
2014-11-25 18:32:00,59.0,50.0,30.33,North,355,2.0,-999.0,72,-99.99,,,-99.99,,2014-11-26 02:32:00,
2014-11-25 18:52:00,59.0,50.0,30.32,North,5,2.0,-999.0,73,-99.99,,,-99.99,,2014-11-26 02:52:00,
2014-11-25 19:02:00,59.0,50.0,30.32,North,5,2.0,-999.0,73,-99.99,,,-99.99,,2014-11-26 03:02:00,
2014-11-25 19:12:00,59.0,50.0,30.32,North,5,2.0,-999.0,73,-99.99,,,-99.99,,2014-11-26 03:12:00,